Location: Nowy Sacz
(49.6330°N, 20.7170°E)
Time: 13:18:10
(UTC+01:00)

Envisat - Pass Details

Date: 23 September 2023
Orbit: 762 x 764 km, 98.3° (Epoch: 30 November)

Event Time Altitude Azimuth Distance (km) Brightness Sun altitude
Rises 02:41:51 0° 32° (NNE) 3,243 7.3 -32.8°
Reaches altitude 10° 02:46:09 10° 67° (ENE) 2,309 6.2 -32.3°
Maximum altitude 02:47:36 11° 84° (E) 2,227 5.9 -32.2°
Drops below altitude 10° 02:49:04 10° 101° (E) 2,303 5.8 -32.0°
Enters shadow 02:51:56 - 127° (SE) 2,843 6.0 -31.7°
